Vertical_Velocity
-2 -4 -4 -1 1 1 -2 -0 2 3 1 0 -0 -1 -1 -0 -0 0 1 2 2 1 1 0 -0 -0 -0 -0 -0 -0 -0 -1 -1 -2 -2 -2 -2 -2 -2 -2 -2 -1 -1 -1 -1 -1 -1 -1 -1 -1 -1 -1 -1 -1 -1 -1 -1 -1 -1 -1 -1 -1 -1 -1 -1 -1 -1 -2 -2 -2 -2 -2 -2 -2 -2 -2 -1 -0 0 0 0 -0 -0 0 1 1
-2 -2 -3 -2 -0 0 -3 -2 1 4 3 2 0 -1 -2 -1 -1 -1 -0 1 2 2 1 1 0 -0 -0 -0 -0 0 -0 -0 -1 -1 -1 -1 -1 -1 -1 -1 -1 -1 -1 -0 -0 -0 -1 -1 -1 -1 -0 -0 -0 -0 -1 -1 -1 -1 -1 -0 -0 -0 -0 -0 -0 -0 -1 -1 -1 -2 -2 -2 -2 -1 -1 -1 -1 -0 -0 -0 -0 -0 -0 0 1 1
-2 -3 -4 -2 -0 1 -1 -1 1 4 5 4 2 -0 -2 -2 -2 -2 -1 -1 -0 0 1 0 0 -0 -0 -0 -0 -0 -0 -0 -1 -1 -1 -1 -1 -1 -0 -0 -0 -0 -0 -0 -0 -0 -0 -0 -0 -0 -0 -0 0 0 0 0 -0 -0 0 0 0 0 0 0 -0 -0 -1 -1 -1 -1 -2 -2 -1 -1 -1 -1 -1 -0 -0 -0 -0 -0 -0 0 1 1
-2 -2 -4 -2 0 1 -0 0 1 3 4 4 3 1 -1 -1 -2 -2 -1 -1 -1 -1 -1 -1 -0 -0 -0 -1 -0 -0 -0 -1 -1 -1 -1 -1 -1 -0 -0 0 -0 -0 -0 -0 -0 0 0 0 0 0 0 1 1 1 1 1 1 1 1 1 1 0 0 -0 -1 -1 -1 -1 -1 -1 -1 -1 -1 -1 -1 -1 -0 -0 -0 0 0 0 0 1 1 1
-3 -2 -3 1 2 1 -0 2 3 3 3 3 2 1 -0 -1 -1 -1 -1 -0 -0 -0 -1 -1 -1 -0 -0 -0 -0 -0 -0 -1 -1 -1 -1 -1 -0 -0 0 -0 -0 -1 -1 -1 -0 0 1 1 1 1 1 1 1 1 1 1 1 1 1 1 0 -0 -1 -1 -1 -1 -2 -1 -1 -1 -1 -1 -1 -0 -0 -0 0 0 1 1 1 1 1 1 2 2
-4 -3 -2 2 3 2 2 2 3 3 3 2 1 0 0 -0 0 0 0 0 0 -0 -1 -1 -1 -0 1 1 1 0 0 -0 -0 -1 -1 -1 -0 -0 -0 -1 -1 -2 -2 -1 -1 0 1 1 1 2 2 2 2 2 2 1 1 1 1 0 -0 -0 -1 -1 -1 -1 -1 -1 -1 -1 -0 -0 0 0 0 1 1 1 2 2 3 3 2 2 2 2
-4 -4 -1 2 3 3 4 3 2 2 2 0 -0 -1 -0 0 1 1 2 2 1 0 -1 -0 -0 0 1 1 2 1 1 0 -0 -0 -0 -1 -1 -0 -0 -1 -2 -3 -3 -2 -1 -0 1 1 2 2 2 3 2 2 1 1 1 1 1 0 0 0 -0 -0 -0 -0 -0 0 0 0 1 1 1 1 1 1 2 2 3 3 3 3 3 3 2 2
-2 -3 0 2 3 2 3 2 2 1 1 0 -1 -1 -1 -1 0 1 2 2 1 1 0 -0 -0 -0 0 1 1 1 1 -0 -1 -1 -1 -1 -0 -0 -1 -1 -2 -3 -3 -2 -2 -1 -0 0 1 1 2 2 1 1 0 0 0 1 1 1 1 1 1 1 1 1 1 1 1 1 1 1 2 2 2 2 2 2 3 3 4 4 3 3 2 2
1 -0 -0 2 3 3 2 0 -0 -0 1 1 0 -0 -1 -1 -1 -0 1 0 -0 -0 1 -0 -1 -2 -2 -1 -1 -0 -0 -0 -1 -2 -2 -1 -0 0 -0 -1 -2 -3 -2 -2 -2 -2 -1 -1 -1 -1 -1 -1 -1 -1 -1 -1 -0 0 1 1 1 1 1 1 1 1 1 1 1 1 1 1 1 2 2 2 2 3 3 3 4 3 3 3 2 2
1 2 1 1 2 3 4 -0 -2 -3 -0 1 1 1 1 1 0 -0 -0 -1 -1 -0 1 1 -0 -2 -3 -2 -1 -1 -2 -2 -1 -1 -1 -1 -0 1 0 -1 -2 -2 -2 -2 -2 -2 -2 -2 -2 -3 -3 -3 -3 -3 -3 -1 -0 0 0 1 1 1 1 1 1 0 0 0 0 1 1 1 1 1 2 2 3 3 3 4 4 3 3 3 2 2
-0 1 2 1 1 2 3 0 -2 -3 -1 -0 -0 0 1 2 3 3 1 -1 -1 0 2 2 2 2 0 -1 -1 -0 -1 -2 -3 -3 -2 -1 0 1 -0 -1 -1 -1 -2 -1 -2 -2 -2 -2 -3 -4 -5 -5 -4 -3 -2 -1 -0 1 1 0 0 0 -0 -0 -0 -0 -0 -0 0 0 1 1 1 2 2 3 3 4 4 4 4 3 3 3 2 2
0 0 2 2 2 1 0 -1 -2 -2 -1 -0 -0 -1 -1 0 3 4 3 1 1 1 2 2 2 3 4 2 0 -0 -0 -1 -2 -3 -4 -2 -0 0 -1 -2 -3 -3 -2 -2 -3 -3 -4 -4 -4 -4 -5 -6 -4 -2 -0 -0 0 1 1 1 0 0 -0 -0 -0 -0 -0 -0 0 1 1 2 2 3 3 4 4 4 4 4 4 3 2 2 2 1
1 1 1 1 1 1 -0 -2 -3 -3 -1 -0 0 0 -2 -2 -0 2 2 1 1 2 2 1 1 1 2 3 2 0 -1 -2 -2 -2 -2 -2 -1 0 -0 -2 -3 -4 -4 -4 -5 -5 -5 -6 -6 -4 -3 -3 -3 -2 0 1 1 1 0 0 0 -0 -0 -0 -1 -0 -0 0 1 1 2 2 3 3 4 4 4 4 4 4 3 2 2 1 1 1
1 1 2 1 1 -0 -1 -2 -2 -2 -2 -1 0 1 0 -1 -1 -0 1 0 0 1 2 1 0 -0 0 2 2 2 1 -1 -2 -3 -3 -1 0 1 0 -1 -2 -3 -4 -5 -6 -6 -5 -6 -6 -6 -3 -1 -1 -0 0 0 0 0 -0 -0 -0 -0 -0 -1 -1 -0 -0 1 1 2 2 2 3 3 3 3 3 3 3 2 2 1 1 0 0 0
1 2 2 1 -0 -1 -1 -1 -1 -1 -2 -0 1 1 1 -0 -0 0 1 -0 -1 -0 1 -0 -1 -1 0 2 2 2 2 2 0 -2 -5 -4 -0 2 2 -1 -3 -3 -3 -5 -7 -8 -6 -3 -3 -3 -3 -1 -0 0 1 0 -0 -1 -1 -1 -1 -1 -1 -1 -1 -0 -0 0 1 1 2 2 2 2 2 2 2 2 1 1 0 -0 -0 -0 -0 -0
1 2 2 0 -0 -1 -1 -0 -0 -0 -1 -0 1 1 1 0 0 1 1 -0 -1 -0 0 -1 -3 -3 -3 1 3 4 2 2 3 2 -1 -5 -3 -0 3 -0 -4 -6 -5 -5 -6 -7 -7 -4 -2 -1 -1 -0 -0 -0 -0 -1 -1 -2 -2 -2 -2 -1 -1 -1 -1 -1 -0 0 0 1 1 1 0 0 0 0 0 0 -0 -0 -1 -1 -1 -1 -0 -0
2 2 2 1 -0 -1 -1 0 1 0 0 1 1 1 2 1 1 1 1 0 -0 -0 -0 1 -0 -3 -6 -4 0 4 5 3 2 2 1 -3 -3 -2 1 1 -1 -4 -6 -5 -4 -2 -2 -3 -3 -2 -1 -0 0 -0 -2 -2 -3 -3 -3 -3 -2 -2 -2 -2 -2 -1 -1 -1 -0 -0 -1 -1 -1 -1 -1 -1 -1 -1 -1 -1 -1 -1 -1 -1 -1 -0
1 2 2 1 -0 -1 -1 0 0 0 1 1 1 1 2 2 2 1 1 0 -0 -1 -1 0 1 1 -1 -3 -3 -1 4 4 2 1 -0 -2 -3 -3 -1 -1 -2 -3 -3 -4 -3 -1 1 -0 -1 -1 -2 -2 -1 -2 -3 -3 -4 -4 -4 -3 -3 -3 -3 -3 -3 -2 -2 -2 -2 -2 -2 -2 -2 -2 -2 -2 -2 -2 -2 -2 -1 -1 -1 -1 -1 -1
1 1 2 0 -0 -0 0 0 0 1 2 1 1 1 1 0 0 1 -0 -0 -0 -0 -0 -1 -0 1 2 -0 -3 -3 1 3 3 2 1 -3 -5 -4 -1 -1 -3 -4 -2 -2 -2 -1 -0 0 0 -0 -2 -3 -3 -4 -4 -5 -5 -5 -5 -5 -4 -4 -4 -4 -4 -3 -3 -3 -2 -2 -2 -2 -2 -2 -2 -2 -2 -2 -2 -2 -1 -1 -1 -1 -1 -1
1 1 0 0 0 0 -0 -0 0 2 3 3 2 2 0 -1 -1 -1 -2 -2 -1 -1 0 1 0 0 1 -1 -4 -5 -2 1 1 1 1 -2 -4 -5 -2 0 0 -1 -2 -2 -1 -0 -2 -2 -1 -0 -2 -4 -5 -5 -5 -6 -6 -6 -6 -6 -5 -4 -4 -4 -4 -3 -3 -3 -2 -2 -2 -2 -2 -2 -2 -2 -2 -2 -1 -1 -1 -1 -1 -1 -1 -1
1 -0 -1 1 1 1 -0 -0 1 2 3 3 2 1 -1 -1 -2 -2 -2 -2 -2 -1 -0 0 0 -0 0 -1 -4 -5 -3 0 1 0 -1 -3 -4 -4 -1 0 1 0 -2 -3 -1 1 0 -4 -5 -3 -1 -3 -5 -6 -6 -6 -6 -6 -6 -6 -5 -4 -4 -3 -3 -2 -2 -2 -2 -2 -2 -2 -2 -2 -2 -2 -2 -2 -2 -2 -2 -1 -1 -1 -1 -1
1 -0 -0 1 1 1 0 1 1 2 3 3 1 -0 -1 -2 -3 -4 -3 -2 -2 -2 -1 -0 -0 0 1 -0 -3 -4 -2 1 3 3 1 -3 -5 -4 2 2 1 -1 -2 -4 -4 -2 2 -0 -4 -6 -5 -4 -4 -6 -7 -7 -7 -6 -6 -5 -4 -4 -3 -2 -2 -1 -1 -1 -1 -1 -1 -2 -2 -2 -2 -2 -2 -2 -2 -2 -2 -2 -2 -2 -2 -2
1 0 -0 0 1 1 1 2 2 2 2 2 1 -0 -1 -1 -2 -3 -3 -1 -1 -1 -0 -0 0 1 2 0 -2 -4 -3 -1 0 2 3 1 -2 -3 2 2 1 -1 -1 -2 -4 -6 -3 -0 -1 -3 -5 -5 -4 -5 -7 -7 -6 -5 -4 -3 -2 -2 -2 -1 -1 -1 -1 -1 -1 -1 -2 -2 -2 -2 -2 -2 -2 -2 -2 -3 -3 -3 -3 -3 -3 -3
1 0 -0 0 1 2 2 2 1 1 0 -0 -0 -1 -1 -1 -1 -0 0 1 1 1 1 1 0 -0 -0 -0 -1 -4 -5 -3 -2 -0 2 4 3 1 0 1 0 -1 -2 -0 -1 -3 -4 -1 -1 -2 -4 -5 -4 -4 -6 -6 -5 -4 -3 -2 -1 -1 -1 -1 -1 -1 -0 -0 -1 -2 -2 -3 -3 -3 -3 -3 -3 -3 -3 -3 -3 -4 -4 -3 -3 -3
1 -0 -0 1 2 3 3 2 1 -0 -1 -1 -2 -2 -2 -2 -1 -0 1 2 2 2 1 1 -0 -1 -1 0 -1 -3 -6 -4 -1 1 4 4 4 2 0 1 1 -0 -2 -1 -1 -1 -2 -1 -0 -1 -5 -5 -4 -3 -4 -4 -4 -3 -3 -2 -2 -2 -2 -1 -1 -1 -1 -1 -1 -2 -3 -3 -3 -4 -3 -3 -3 -3 -4 -4 -4 -4 -4 -4 -4 -3
0 0 1 2 3 3 2 1 0 -0 -1 -1 -2 -2 -2 -1 -0 0 1 1 1 1 1 -0 -1 -1 -0 0 -1 -3 -5 -4 -1 3 6 5 3 1 -0 2 2 0 -3 -2 -0 -1 -4 -2 -0 0 -3 -6 -6 -4 -2 -2 -2 -3 -2 -3 -3 -3 -2 -2 -1 -1 -1 -2 -2 -3 -3 -4 -4 -4 -4 -4 -4 -4 -4 -4 -4 -4 -4 -4 -3 -3
1 1 2 2 3 2 1 1 -0 -1 -1 -2 -2 -1 -0 1 1 1 1 1 0 0 0 -0 -1 -2 -2 -2 -3 -4 -4 -2 1 3 4 4 2 0 -1 2 3 3 -1 -3 -1 0 -3 -4 -1 2 1 -3 -6 -8 -6 -4 -4 -4 -4 -4 -4 -4 -3 -2 -1 -1 -2 -2 -3 -3 -4 -4 -4 -4 -4 -4 -4 -4 -4 -4 -4 -4 -4 -3 -3 -3
1 2 2 2 2 1 1 0 -0 -1 -2 -2 -1 -0 1 2 3 3 1 -0 -1 -0 0 0 -0 -1 -2 -3 -3 -3 -2 1 1 2 3 4 2 -0 -2 -0 2 4 2 -1 -1 -0 -1 -6 -7 -4 1 2 -1 -5 -9 -7 -6 -6 -6 -5 -5 -5 -4 -3 -2 -1 -2 -3 -3 -4 -4 -4 -4 -4 -4 -4 -4 -4 -4 -4 -4 -4 -4 -3 -3 -2
2 2 2 1 1 1 0 -0 -1 -1 -2 -1 -0 1 2 3 4 3 0 -0 -0 1 0 0 -0 -1 -2 -2 -1 -0 1 1 -0 -0 2 4 2 -1 -1 -0 1 3 2 -2 -3 -1 0 -3 -9 -13 -11 -5 -2 -4 -8 -9 -8 -6 -6 -5 -4 -4 -4 -4 -2 -1 -2 -3 -4 -4 -5 -5 -4 -4 -4 -4 -4 -4 -4 -4 -4 -4 -3 -3 -2 -2
2 2 1 1 1 1 0 -0 -1 -1 -1 -0 1 2 2 2 2 1 -0 0 1 2 1 -0 -1 -2 -2 -0 1 2 1 0 -1 -2 -0 2 1 -1 -2 -1 1 4 4 -1 -5 -6 -2 1 -1 -6 -14 -12 -9 -7 -7 -9 -9 -8 -6 -5 -3 -3 -3 -4 -3 -1 -1 -3 -4 -5 -5 -5 -4 -4 -3 -4 -4 -4 -4 -4 -4 -4 -3 -3 -2 -2
2 1 1 1 0 0 0 -0 -0 -0 -0 1 1 2 2 1 1 0 0 1 1 1 0 -1 -2 -2 -0 2 4 4 1 0 -0 -0 1 1 1 0 1 -1 -1 1 6 4 -1 -6 -8 -5 -1 -1 -5 -11 -13 -11 -6 -5 -6 -7 -7 -6 -4 -3 -3 -4 -3 -3 -2 -3 -4 -6 -6 -5 -4 -3 -3 -3 -4 -4 -5 -4 -4 -4 -3 -2 -2 -2
1 1 0 0 0 0 0 -0 -0 -0 -0 1 1 1 1 1 1 1 1 1 0 -0 -1 -2 -2 -1 1 4 5 4 2 1 -0 0 2 2 0 -0 2 -0 -2 -2 1 4 3 -0 -5 -8 -7 -5 -2 -6 -11 -14 -11 -4 -1 -3 -6 -6 -5 -3 -2 -3 -4 -4 -3 -4 -5 -6 -6 -5 -3 -2 -2 -3 -4 -4 -5 -4 -4 -3 -3 -2 -2 -2
1 0 0 1 1 0 -0 -1 -1 -0 0 1 1 1 1 1 1 1 1 -0 -1 -1 -2 -2 -1 1 2 3 3 2 1 -0 -1 -1 1 2 1 -0 -0 -1 -3 -4 -3 -1 0 0 -1 -4 -8 -9 -8 -4 -5 -9 -14 -10 -6 -2 -2 -4 -5 -4 -2 -2 -2 -3 -3 -4 -5 -6 -6 -4 -3 -2 -2 -3 -4 -5 -5 -4 -4 -3 -3 -2 -2 -3
1 1 1 1 0 -0 -1 -1 -0 1 1 1 1 1 1 1 1 0 -0 -1 -2 -2 -1 0 1 2 2 2 2 2 1 -0 -1 -1 -0 1 1 0 -0 -1 -3 -5 -5 -3 -4 -5 -6 -5 -7 -10 -13 -8 -4 -2 -6 -12 -12 -9 -3 -3 -5 -5 -4 -4 -3 -2 -1 -3 -5 -6 -6 -4 -2 -2 -2 -3 -4 -4 -5 -4 -3 -3 -2 -2 -3 -3
1 1 1 0 -0 -1 -1 -0 1 1 2 2 2 2 1 1 0 -1 -1 -2 -2 -1 -0 1 2 3 3 2 2 2 2 1 0 -0 -1 -0 -1 -1 -1 -1 -3 -4 -5 -2 -2 -4 -8 -8 -7 -8 -12 -14 -12 -6 0 -2 -6 -9 -8 -5 -4 -4 -4 -4 -4 -3 -2 -3 -4 -5 -5 -3 -2 -2 -2 -3 -4 -4 -4 -3 -3 -3 -2 -3 -3 -3
2 1 0 -0 -0 -0 0 1 1 2 2 2 2 1 1 0 -1 -1 -1 -1 -1 -0 1 1 2 2 2 2 2 3 2 2 2 1 -0 -1 -2 -2 -2 -2 -2 -4 -6 -4 -3 -2 -4 -5 -4 -4 -7 -13 -18 -18 -14 -8 -4 -4 -6 -6 -5 -3 -2 -2 -2 -3 -2 -3 -3 -4 -4 -3 -2 -2 -2 -4 -4 -4 -4 -3 -3 -2 -3 -3 -3 -3
1 0 -0 0 1 1 2 2 2 2 2 1 1 0 -0 -0 -1 -1 -1 -1 -0 1 1 1 1 1 1 1 2 2 2 2 1 1 -0 -2 -3 -4 -4 -3 -2 -2 -4 -6 -5 -4 -3 -5 -6 -6 -5 -4 -6 -10 -16 -16 -13 -8 -4 -5 -6 -6 -4 -1 -1 -1 -1 -2 -3 -4 -3 -2 -2 -2 -3 -4 -4 -4 -3 -3 -2 -3 -3 -3 -3 -3
0 0 1 1 1 2 2 2 2 2 1 1 0 -0 -0 0 0 0 -0 -0 0 1 2 1 1 1 1 1 1 1 1 0 -0 -1 -2 -2 -3 -4 -5 -5 -3 -2 -1 -3 -4 -5 -4 -5 -6 -9 -11 -9 -8 -6 -6 -10 -11 -10 -6 -4 -4 -6 -6 -4 -3 -2 -1 -1 -2 -3 -3 -3 -2 -3 -4 -4 -4 -4 -3 -3 -3 -3 -3 -4 -3 -3
1 2 2 2 2 2 2 2 2 1 0 0 1 1 1 1 1 1 1 1 1 2 2 1 1 1 1 1 2 2 1 1 -1 -2 -3 -3 -4 -5 -5 -5 -4 -3 -2 -2 -4 -5 -5 -4 -2 -3 -6 -10 -13 -14 -14 -12 -9 -7 -6 -5 -3 -2 -2 -2 -2 -1 -2 -2 -2 -2 -2 -3 -3 -4 -4 -4 -4 -4 -3 -3 -3 -3 -4 -4 -4 -3
3 3 2 2 2 2 2 2 1 1 1 1 1 1 2 1 1 1 1 1 1 1 1 2 2 2 2 1 1 1 1 1 -0 -1 -3 -4 -4 -4 -5 -5 -5 -5 -4 -3 -4 -5 -6 -6 -5 -3 -3 -5 -6 -8 -10 -12 -12 -10 -7 -6 -5 -3 -3 -2 -1 -0 -0 -1 -2 -2 -2 -2 -3 -4 -4 -4 -4 -4 -3 -3 -3 -3 -4 -4 -3 -3
3 3 2 1 1 1 1 1 1 2 2 2 2 2 1 1 1 1 1 0 0 0 0 0 1 1 1 1 -0 -1 -2 -1 -1 -1 -1 -3 -4 -5 -5 -5 -5 -5 -5 -4 -4 -4 -7 -9 -9 -8 -7 -8 -9 -9 -8 -7 -7 -7 -8 -7 -5 -4 -4 -4 -4 -2 -1 -0 -1 -1 -2 -3 -4 -4 -4 -4 -4 -4 -3 -3 -3 -4 -4 -4 -3 -3
2 2 1 1 1 1 1 2 2 3 3 3 3 2 1 1 1 1 1 0 -0 -1 -0 -0 -1 -1 -2 -2 -2 -2 -3 -3 -3 -3 -2 -3 -4 -4 -5 -5 -6 -7 -7 -6 -4 -2 -3 -6 -9 -11 -10 -8 -8 -9 -11 -10 -8 -6 -5 -6 -5 -4 -2 -2 -2 -3 -2 -1 -1 -2 -2 -3 -4 -4 -4 -4 -4 -4 -4 -4 -4 -4 -4 -3 -3 -3
1 0 1 2 2 3 3 3 4 4 3 3 2 1 0 0 1 1 1 1 0 -0 -0 0 -0 -0 -2 -3 -4 -3 -3 -3 -4 -4 -4 -5 -5 -5 -5 -5 -5 -6 -8 -9 -9 -6 -1 -0 -3 -7 -11 -12 -10 -8 -5 -7 -8 -8 -6 -5 -6 -6 -5 -3 -2 -1 -2 -2 -2 -2 -3 -3 -3 -4 -4 -4 -4 -4 -4 -4 -4 -4 -4 -3 -3 -3
-0 1 2 3 4 4 4 5 4 4 4 3 1 -0 -1 -1 -0 0 1 0 0 0 1 0 1 1 -0 -2 -3 -4 -3 -3 -4 -4 -4 -4 -5 -5 -6 -6 -6 -5 -5 -6 -8 -10 -10 -7 -4 -2 -3 -7 -11 -13 -12 -9 -6 -5 -5 -5 -5 -5 -5 -4 -4 -3 -2 -2 -3 -3 -3 -3 -3 -4 -4 -4 -4 -4 -4 -4 -4 -4 -4 -3 -3 -3
1 3 4 5 5 5 5 4 4 3 2 0 -0 -1 -1 -1 -0 0 1 0 1 1 1 1 1 1 1 -0 -1 -2 -2 -3 -4 -4 -4 -3 -3 -3 -4 -5 -6 -6 -6 -4 -3 -4 -7 -8 -8 -6 -5 -5 -7 -10 -13 -12 -9 -6 -4 -4 -5 -4 -3 -4 -4 -4 -3 -3 -3 -3 -3 -3 -3 -4 -4 -4 -5 -5 -5 -4 -4 -4 -4 -3 -3 -3
3 4 4 4 4 3 3 2 1 0 -1 -1 -1 -1 -1 -0 -0 0 0 0 1 1 2 1 1 1 0 0 -0 -1 -1 -2 -2 -2 -2 -2 -1 -1 -2 -3 -4 -4 -6 -5 -5 -4 -3 -4 -5 -6 -8 -10 -10 -10 -9 -9 -9 -8 -6 -5 -5 -5 -4 -4 -4 -4 -4 -3 -3 -3 -3 -3 -3 -4 -4 -5 -5 -5 -5 -4 -4 -4 -3 -3 -3 -3
2 2 1 1 0 -0 -1 -1 -1 -1 -2 -2 -1 -1 -0 -0 -0 -0 -0 0 0 1 1 0 0 0 -0 -0 -1 -1 -2 -2 -2 -1 -1 -1 -0 -0 -1 -1 -2 -3 -4 -5 -6 -6 -6 -6 -6 -7 -8 -9 -10 -11 -11 -9 -7 -6 -5 -6 -5 -5 -5 -4 -4 -4 -4 -4 -4 -3 -3 -3 -4 -4 -4 -5 -5 -5 -5 -4 -4 -4 -3 -3 -3 -3
1 0 -0 -0 -1 -1 -2 -2 -2 -2 -1 -1 -0 -0 -0 -0 -0 0 0 0 0 -0 -0 -1 -1 -1 -1 -1 -1 -2 -3 -3 -3 -3 -2 -2 -1 -1 -0 -1 -2 -3 -4 -6 -7 -7 -6 -6 -8 -10 -11 -10 -8 -7 -8 -9 -8 -6 -4 -5 -5 -5 -4 -4 -4 -4 -4 -4 -4 -4 -4 -4 -4 -4 -4 -5 -5 -5 -4 -4 -4 -4 -3 -3 -3 -3
1 1 0 -0 -1 -2 -2 -2 -1 -0 -0 0 0 -0 -1 -1 -0 0 1 1 0 -0 -1 -1 -1 -1 -1 -2 -2 -3 -3 -3 -3 -2 -3 -3 -3 -3 -2 -2 -3 -4 -5 -6 -8 -10 -9 -8 -7 -9 -12 -13 -11 -8 -6 -6 -6 -6 -5 -5 -5 -4 -4 -4 -4 -4 -4 -4 -4 -4 -4 -4 -4 -4 -4 -4 -4 -4 -4 -4 -4 -4 -3 -3 -3 -3
1 -0 -1 -1 -1 -1 -1 0 1 1 1 0 0 -0 -1 -1 -0 0 0 0 0 0 -0 -1 -1 -1 -1 -2 -3 -3 -4 -3 -3 -2 -2 -3 -3 -4 -3 -4 -5 -6 -6 -7 -8 -11 -13 -12 -10 -9 -9 -11 -11 -9 -7 -5 -4 -4 -4 -5 -5 -4 -4 -4 -4 -4 -4 -4 -4 -4 -4 -4 -4 -4 -4 -4 -4 -4 -4 -4 -4 -4 -3 -3 -3 -3
-1 -2 -2 -1 0 2 2 2 1 1 0 0 -0 -0 -0 -0 0 0 0 -0 -0 -0 -0 -1 -1 -2 -3 -3 -2 -2 -2 -3 -3 -3 -2 -2 -3 -3 -3 -4 -5 -6 -7 -7 -8 -8 -10 -11 -11 -11 -10 -8 -7 -6 -6 -5 -4 -4 -4 -4 -4 -4 -4 -4 -5 -5 -5 -4 -4 -4 -4 -4 -4 -4 -4 -4 -4 -4 -4 -4 -4 -4 -3 -3 -3 -3
Height
5698 5697 5696 5695 5694 5693 5692 5691 5690 5689 5688 5687 5686 5685 5684 5683 5682 5681 5680 5678 5677 5675 5673 5672 5670 5668 5666 5664 5662 5660 5658 5656 5653 5651 5649 5647 5645 5643 5640 5638 5635 5633 5630 5628 5625 5623 5620 5618 5615 5612 5609 5606 5603 5600 5597 5594 5591 5588 5584 5581 5578 5574 5571 5567 5563 5559 5555 5551 5547 5543 5538 5534 5530 5526 5521 5517 5513 5509 5505 5501 5496 5492 5488 5483 5479 5475
5695 5694 5693 5692 5691 5690 5689 5688 5687 5687 5685 5684 5683 5682 5681 5680 5679 5678 5677 5675 5674 5672 5670 5668 5666 5664 5662 5660 5658 5657 5654 5652 5650 5648 5646 5643 5641 5639 5637 5634 5632 5629 5627 5624 5622 5620 5617 5614 5611 5608 5605 5603 5599 5597 5593 5590 5587 5583 5580 5577 5573 5569 5565 5562 5558 5553 5549 5545 5541 5536 5532 5528 5523 5519 5515 5511 5507 5503 5498 5494 5489 5485 5480 5476 5472 5468
5692 5691 5690 5689 5688 5688 5686 5685 5684 5684 5683 5681 5680 5679 5678 5678 5676 5675 5674 5672 5670 5668 5667 5665 5663 5661 5659 5657 5655 5653 5651 5649 5647 5644 5642 5640 5638 5636 5633 5631 5628 5626 5624 5621 5619 5616 5613 5611 5608 5605 5602 5599 5596 5593 5589 5586 5583 5579 5575 5572 5568 5564 5560 5556 5552 5548 5543 5539 5535 5530 5526 5522 5517 5513 5509 5504 5500 5496 5491 5487 5482 5477 5473 5468 5464 5460
5689 5688 5687 5687 5686 5684 5683 5682 5682 5681 5680 5679 5678 5677 5676 5675 5673 5672 5670 5669 5667 5665 5663 5661 5659 5658 5655 5653 5652 5650 5648 5645 5643 5641 5639 5637 5634 5632 5630 5628 5625 5623 5620 5618 5615 5613 5610 5607 5604 5601 5598 5595 5592 5588 5585 5582 5578 5574 5571 5567 5563 5559 5554 5550 5546 5542 5537 5533 5528 5524 5520 5515 5511 5507 5502 5498 5493 5489 5484 5480 5475 5470 5465 5461 5456 5452
5686 5685 5684 5684 5683 5682 5681 5680 5679 5678 5677 5677 5676 5675 5673 5672 5671 5669 5667 5666 5664 5662 5660 5658 5656 5654 5652 5650 5648 5646 5644 5642 5640 5638 5636 5633 5631 5629 5626 5624 5622 5619 5617 5614 5612 5609 5606 5603 5600 5598 5594 5591 5588 5584 5581 5577 5573 5570 5566 5562 5558 5553 5549 5544 5540 5536 5531 5527 5523 5518 5514 5509 5505 5500 5496 5491 5487 5482 5478 5473 5468 5463 5458 5453 5449 5444
5683 5682 5682 5681 5680 5679 5678 5677 5676 5675 5675 5674 5673 5672 5671 5669 5668 5666 5664 5663 5661 5659 5657 5655 5653 5651 5649 5647 5645 5643 5641 5639 5637 5634 5632 5630 5628 5625 5623 5620 5618 5615 5613 5611 5608 5605 5603 5600 5597 5594 5591 5587 5584 5580 5576 5573 5569 5565 5561 5556 5552 5548 5543 5539 5534 5530 5525 5521 5517 5512 5508 5503 5499 5494 5489 5485 5480 5475 5470 5465 5460 5455 5450 5446 5441 5437
5680 5679 5678 5678 5677 5676 5675 5674 5673 5673 5672 5671 5670 5669 5668 5667 5665 5663 5661 5659 5658 5656 5653 5652 5650 5648 5646 5644 5642 5640 5638 5636 5633 5631 5629 5627 5624 5622 5619 5617 5614 5612 5609 5607 5604 5602 5599 5596 5593 5590 5587 5583 5579 5576 5572 5568 5564 5560 5555 5551 5547 5542 5538 5533 5529 5524 5520 5516 5511 5507 5502 5498 5493 5488 5483 5478 5473 5468 5463 5458 5453 5448 5444 5439 5435 5431
5677 5676 5676 5675 5674 5673 5672 5672 5671 5670 5669 5668 5667 5666 5665 5663 5662 5660 5658 5656 5654 5653 5650 5648 5646 5645 5643 5641 5639 5636 5634 5632 5630 5628 5625 5623 5621 5618 5616 5613 5611 5608 5606 5603 5600 5598 5595 5592 5589 5585 5582 5578 5575 5571 5567 5563 5559 5555 5550 5546 5542 5537 5533 5528 5524 5519 5515 5510 5506 5501 5496 5491 5487 5482 5477 5471 5466 5461 5456 5451 5447 5442 5437 5433 5429 5425
5674 5673 5673 5672 5671 5670 5669 5668 5668 5667 5666 5665 5664 5663 5662 5660 5659 5657 5655 5653 5651 5649 5647 5645 5643 5641 5639 5638 5636 5633 5631 5628 5626 5624 5622 5619 5617 5615 5613 5610 5607 5604 5602 5599 5596 5593 5590 5587 5584 5581 5577 5574 5570 5566 5562 5558 5554 5550 5545 5541 5537 5532 5528 5523 5519 5514 5510 5505 5500 5495 5490 5485 5480 5475 5470 5465 5459 5454 5449 5445 5440 5435 5431 5427 5423 5419
5671 5670 5669 5669 5668 5668 5667 5666 5665 5664 5664 5663 5661 5660 5659 5658 5656 5654 5652 5651 5649 5647 5644 5643 5640 5638 5636 5634 5633 5630 5628 5625 5623 5621 5619 5617 5614 5612 5609 5606 5603 5601 5598 5595 5592 5589 5586 5583 5579 5576 5573 5569 5565 5561 5557 5553 5549 5545 5540 5536 5532 5527 5523 5518 5513 5509 5504 5499 5494 5489 5484 5479 5474 5468 5463 5458 5453 5448 5443 5438 5433 5429 5425 5421 5418 5414
5668 5667 5667 5666 5665 5665 5664 5663 5662 5662 5661 5660 5658 5657 5656 5655 5653 5651 5649 5648 5646 5644 5642 5640 5638 5636 5633 5631 5629 5627 5625 5622 5620 5618 5616 5613 5611 5608 5605 5603 5600 5597 5594 5591 5588 5584 5581 5578 5575 5571 5568 5564 5560 5556 5552 5548 5544 5540 5535 5531 5527 5522 5518 5513 5508 5503 5498 5493 5488 5483 5478 5473 5467 5462 5457 5452 5446 5441 5437 5432 5428 5423 5419 5416 5412 5409
5665 5664 5664 5663 5663 5662 5661 5661 5660 5659 5658 5657 5655 5654 5653 5652 5650 5649 5646 5644 5643 5641 5639 5637 5635 5634 5632 5629 5626 5623 5621 5619 5617 5614 5612 5610 5608 5605 5602 5598 5595 5593 5590 5586 5583 5580 5577 5574 5570 5567 5563 5559 5555 5552 5548 5543 5539 5535 5531 5526 5522 5517 5512 5508 5503 5498 5493 5488 5482 5477 5472 5466 5461 5456 5450 5445 5440 5435 5431 5426 5422 5418 5414 5410 5407 5404
5662 5661 5661 5660 5660 5659 5659 5658 5657 5656 5655 5654 5652 5651 5649 5648 5647 5646 5643 5642 5640 5638 5637 5634 5632 5630 5628 5626 5623 5620 5618 5615 5613 5611 5608 5606 5604 5601 5598 5594 5591 5588 5585 5582 5578 5575 5573 5569 5566 5562 5558 5555 5551 5547 5543 5539 5535 5530 5526 5521 5517 5512 5507 5502 5497 5492 5487 5482 5476 5471 5466 5460 5455 5449 5444 5439 5434 5429 5425 5420 5416 5412 5408 5405 5402 5399
5659 5658 5658 5657 5657 5657 5656 5655 5654 5653 5652 5651 5649 5648 5647 5645 5644 5642 5641 5639 5637 5636 5634 5631 5629 5627 5625 5623 5620 5618 5615 5612 5610 5608 5605 5603 5601 5598 5594 5590 5587 5584 5581 5578 5574 5571 5568 5565 5562 5558 5554 5550 5546 5542 5538 5534 5530 5525 5521 5516 5512 5507 5502 5496 5491 5486 5481 5476 5470 5465 5459 5454 5448 5443 5438 5433 5428 5423 5419 5415 5411 5407 5403 5400 5397 5394
5656 5656 5655 5654 5654 5653 5653 5652 5651 5649 5648 5648 5647 5645 5644 5642 5641 5640 5638 5636 5634 5632 5630 5628 5626 5624 5622 5620 5618 5615 5612 5609 5607 5604 5602 5599 5597 5594 5591 5587 5583 5579 5577 5574 5570 5567 5563 5561 5557 5553 5549 5545 5541 5537 5533 5529 5525 5520 5516 5511 5506 5501 5496 5491 5485 5480 5475 5469 5464 5458 5453 5447 5442 5437 5432 5427 5422 5418 5413 5409 5406 5402 5398 5395 5392 5389
5653 5653 5652 5652 5651 5650 5650 5649 5648 5647 5646 5645 5644 5643 5641 5639 5638 5637 5635 5633 5631 5629 5627 5625 5622 5620 5618 5618 5616 5613 5610 5607 5603 5601 5599 5596 5593 5590 5587 5583 5579 5575 5573 5570 5567 5563 5559 5556 5552 5548 5545 5541 5537 5533 5528 5524 5519 5515 5510 5505 5500 5495 5490 5485 5479 5474 5468 5463 5457 5452 5446 5441 5435 5430 5425 5421 5416 5412 5408 5404 5401 5397 5394 5391 5388 5385
5650 5650 5649 5648 5648 5647 5647 5646 5645 5644 5643 5642 5641 5640 5638 5637 5635 5634 5632 5630 5628 5626 5623 5622 5619 5617 5615 5613 5612 5611 5608 5604 5601 5598 5595 5592 5589 5586 5583 5580 5576 5572 5569 5566 5563 5559 5555 5551 5548 5543 5540 5536 5532 5527 5523 5518 5514 5509 5505 5500 5495 5489 5484 5479 5473 5468 5462 5456 5451 5445 5439 5434 5429 5424 5419 5415 5411 5407 5403 5400 5396 5393 5389 5386 5383 5381
5648 5647 5646 5646 5645 5644 5644 5643 5642 5642 5640 5639 5638 5637 5636 5634 5633 5631 5629 5627 5625 5623 5620 5618 5617 5615 5613 5610 5608 5607 5605 5602 5598 5594 5591 5588 5585 5582 5579 5576 5572 5568 5565 5562 5559 5555 5551 5547 5543 5539 5535 5531 5527 5522 5518 5513 5508 5504 5499 5494 5489 5483 5478 5473 5467 5461 5456 5450 5444 5438 5433 5428 5423 5418 5414 5410 5406 5403 5399 5395 5392 5388 5385 5382 5379 5377
5645 5644 5643 5643 5642 5642 5641 5640 5639 5639 5638 5637 5635 5634 5633 5631 5630 5628 5626 5624 5622 5619 5618 5615 5613 5612 5610 5607 5605 5603 5601 5598 5595 5591 5588 5584 5581 5578 5576 5572 5568 5565 5562 5558 5555 5551 5547 5542 5538 5534 5530 5526 5522 5517 5513 5508 5503 5498 5493 5488 5483 5478 5472 5466 5460 5455 5449 5443 5438 5433 5427 5422 5418 5413 5410 5406 5402 5398 5394 5391 5387 5384 5381 5378 5375 5373
5642 5641 5641 5640 5639 5638 5638 5638 5637 5636 5635 5634 5633 5631 5630 5628 5627 5625 5623 5621 5618 5617 5615 5613 5610 5608 5607 5604 5601 5599 5597 5594 5591 5588 5584 5581 5578 5575 5573 5569 5565 5561 5557 5554 5551 5547 5543 5538 5534 5530 5525 5521 5517 5512 5507 5503 5498 5493 5488 5483 5477 5472 5466 5460 5454 5448 5443 5437 5432 5427 5422 5418 5413 5409 5405 5402 5398 5394 5390 5387 5383 5380 5377 5374 5372 5369
5639 5638 5638 5638 5637 5636 5635 5635 5634 5634 5633 5631 5630 5628 5627 5625 5623 5621 5619 5618 5615 5613 5612 5610 5608 5605 5603 5601 5598 5595 5593 5591 5588 5584 5581 5578 5575 5572 5569 5566 5562 5557 5553 5550 5546 5542 5538 5534 5530 5525 5521 5516 5512 5507 5502 5497 5492 5487 5482 5477 5472 5466 5460 5454 5449 5443 5437 5432 5427 5422 5417 5413 5409 5405 5401 5398 5394 5390 5386 5383 5380 5377 5374 5371 5368 5366
5636 5636 5635 5635 5634 5633 5633 5632 5632 5631 5630 5628 5627 5625 5623 5622 5620 5618 5616 5614 5613 5611 5609 5607 5605 5603 5600 5598 5594 5591 5590 5588 5585 5582 5578 5574 5571 5568 5566 5562 5558 5553 5550 5546 5543 5538 5534 5530 5526 5521 5517 5512 5507 5502 5498 5493 5488 5482 5477 5472 5466 5461 5455 5449 5443 5438 5432 5427 5422 5418 5413 5409 5405 5401 5398 5394 5390 5386 5383 5379 5377 5373 5371 5368 5366 5364
5633 5633 5632 5631 5631 5630 5630 5629 5628 5628 5627 5625 5624 5622 5621 5619 5617 5615 5613 5612 5610 5608 5606 5604 5602 5600 5598 5595 5591 5588 5586 5584 5582 5578 5575 5572 5568 5565 5562 5558 5554 5549 5545 5543 5539 5535 5530 5525 5521 5517 5513 5508 5502 5498 5493 5488 5483 5478 5472 5467 5461 5455 5450 5444 5438 5433 5427 5422 5418 5413 5409 5405 5402 5398 5394 5391 5387 5383 5380 5377 5374 5371 5368 5366 5364 5362
5631 5630 5629 5628 5628 5628 5628 5627 5626 5624 5623 5622 5621 5619 5617 5616 5614 5612 5610 5609 5607 5605 5603 5601 5599 5597 5594 5592 5588 5585 5583 5581 5579 5576 5573 5568 5565 5562 5558 5555 5551 5546 5541 5538 5535 5532 5527 5522 5517 5513 5509 5504 5498 5493 5488 5483 5478 5473 5468 5462 5456 5450 5444 5439 5433 5428 5423 5418 5414 5410 5406 5402 5398 5395 5391 5388 5384 5381 5378 5375 5372 5369 5367 5365 5363 5361
5628 5627 5626 5626 5626 5626 5625 5624 5623 5622 5620 5619 5618 5616 5614 5613 5611 5609 5608 5606 5604 5602 5600 5598 5596 5593 5591 5589 5586 5583 5580 5578 5576 5573 5570 5566 5561 5558 5555 5552 5548 5544 5538 5534 5531 5528 5524 5518 5513 5509 5504 5500 5495 5490 5484 5479 5474 5469 5463 5457 5451 5445 5439 5434 5428 5424 5419 5415 5411 5407 5403 5399 5396 5392 5389 5386 5382 5379 5376 5373 5371 5368 5366 5363 5362 5360
5625 5624 5624 5624 5624 5623 5622 5621 5620 5619 5618 5616 5615 5613 5611 5610 5608 5607 5605 5603 5602 5599 5597 5594 5592 5590 5588 5586 5583 5580 5578 5575 5573 5570 5567 5563 5558 5554 5551 5548 5545 5541 5536 5531 5527 5524 5520 5515 5510 5504 5500 5496 5491 5486 5481 5475 5470 5464 5458 5452 5446 5440 5434 5429 5424 5420 5416 5412 5408 5404 5401 5397 5393 5390 5387 5384 5381 5378 5375 5372 5370 5367 5365 5363 5361 5359
5623 5622 5622 5622 5621 5620 5619 5618 5617 5616 5615 5613 5612 5610 5609 5607 5606 5604 5602 5601 5599 5597 5594 5592 5589 5587 5584 5582 5580 5578 5575 5572 5569 5566 5563 5560 5556 5552 5548 5545 5542 5538 5533 5527 5523 5520 5517 5513 5508 5502 5496 5492 5487 5483 5477 5471 5465 5459 5453 5447 5441 5435 5430 5425 5421 5417 5413 5409 5406 5402 5398 5395 5392 5389 5386 5383 5379 5377 5374 5371 5369 5366 5364 5362 5360 5358
5620 5620 5620 5619 5618 5618 5617 5616 5614 5613 5612 5610 5609 5608 5606 5605 5603 5601 5599 5598 5596 5593 5591 5589 5586 5584 5581 5579 5577 5575 5573 5569 5566 5563 5560 5557 5553 5549 5546 5543 5539 5534 5530 5524 5518 5514 5513 5510 5506 5500 5493 5487 5482 5477 5472 5466 5460 5453 5447 5441 5436 5431 5426 5422 5418 5414 5411 5408 5404 5400 5397 5394 5391 5388 5384 5382 5378 5376 5373 5370 5368 5366 5364 5362 5359 5358
5618 5618 5617 5616 5616 5615 5614 5613 5612 5611 5609 5608 5606 5605 5603 5602 5601 5598 5596 5594 5593 5590 5588 5586 5584 5582 5579 5577 5574 5571 5569 5566 5563 5560 5557 5553 5549 5546 5543 5540 5536 5532 5528 5522 5515 5509 5506 5504 5503 5498 5492 5484 5478 5472 5467 5461 5455 5448 5442 5437 5432 5427 5423 5419 5416 5412 5409 5406 5402 5399 5396 5393 5390 5387 5383 5381 5378 5375 5372 5370 5367 5365 5363 5361 5359 5357
5616 5615 5614 5614 5613 5612 5611 5610 5609 5608 5607 5605 5604 5602 5600 5599 5598 5596 5593 5592 5590 5588 5585 5583 5581 5579 5577 5574 5571 5568 5564 5562 5560 5557 5554 5551 5546 5543 5540 5536 5532 5528 5525 5520 5514 5506 5500 5497 5495 5493 5488 5482 5475 5468 5462 5456 5450 5444 5438 5433 5428 5424 5421 5417 5414 5411 5408 5404 5401 5398 5395 5392 5389 5386 5383 5380 5377 5374 5371 5369 5367 5364 5363 5361 5359 5357
5613 5613 5612 5612 5611 5610 5609 5608 5606 5605 5604 5603 5601 5599 5598 5596 5594 5593 5590 5588 5587 5585 5583 5580 5578 5577 5574 5572 5568 5565 5561 5558 5556 5553 5551 5548 5543 5539 5536 5533 5528 5524 5520 5518 5513 5508 5500 5493 5488 5485 5482 5477 5471 5465 5458 5452 5446 5441 5435 5430 5426 5422 5418 5415 5413 5409 5406 5403 5400 5397 5394 5391 5388 5385 5382 5379 5376 5373 5371 5368 5366 5364 5362 5360 5359 5357
5611 5610 5610 5609 5608 5607 5606 5605 5604 5603 5601 5600 5598 5597 5595 5593 5591 5589 5588 5586 5584 5582 5580 5578 5576 5574 5571 5569 5566 5563 5559 5556 5553 5550 5548 5545 5541 5536 5533 5529 5526 5521 5517 5513 5510 5507 5501 5494 5487 5482 5477 5472 5468 5462 5456 5449 5443 5438 5433 5428 5423 5419 5416 5414 5411 5408 5405 5402 5399 5396 5393 5390 5388 5384 5381 5378 5375 5373 5370 5368 5366 5364 5362 5360 5359 5357
5609 5608 5608 5607 5606 5605 5603 5602 5601 5600 5598 5597 5595 5593 5592 5590 5589 5587 5585 5583 5582 5580 5578 5576 5574 5571 5568 5565 5563 5560 5557 5554 5551 5547 5544 5541 5537 5533 5529 5526 5522 5518 5513 5509 5505 5502 5498 5492 5486 5480 5474 5468 5463 5459 5454 5448 5441 5435 5430 5426 5422 5418 5414 5412 5410 5407 5404 5401 5398 5395 5393 5390 5387 5384 5381 5378 5374 5372 5369 5367 5365 5363 5362 5360 5359 5358
5607 5606 5605 5604 5603 5602 5601 5600 5598 5597 5595 5594 5593 5591 5589 5588 5586 5584 5583 5581 5579 5578 5576 5573 5571 5568 5565 5562 5559 5557 5554 5551 5548 5545 5541 5538 5534 5530 5526 5522 5519 5515 5511 5506 5502 5498 5493 5488 5483 5477 5472 5465 5460 5455 5450 5446 5440 5434 5429 5424 5421 5417 5414 5411 5408 5406 5403 5400 5397 5394 5392 5389 5386 5383 5380 5377 5374 5371 5369 5367 5365 5363 5362 5360 5359 5358
5604 5604 5603 5602 5601 5599 5598 5597 5596 5594 5593 5591 5590 5588 5587 5585 5583 5582 5580 5579 5577 5575 5573 5570 5568 5565 5563 5560 5557 5554 5551 5548 5544 5541 5538 5534 5531 5527 5523 5519 5515 5512 5508 5503 5499 5495 5490 5484 5479 5474 5469 5463 5458 5452 5446 5442 5438 5433 5427 5423 5419 5416 5413 5411 5408 5405 5402 5399 5396 5393 5391 5388 5385 5382 5379 5376 5373 5371 5368 5367 5365 5363 5362 5361 5359 5358
5602 5601 5600 5599 5598 5597 5596 5594 5593 5592 5590 5588 5587 5586 5584 5583 5581 5580 5578 5576 5574 5572 5570 5567 5564 5562 5560 5557 5555 5552 5548 5544 5541 5538 5534 5531 5528 5524 5520 5516 5513 5510 5506 5501 5496 5491 5487 5482 5476 5471 5466 5461 5456 5450 5444 5439 5434 5429 5425 5421 5418 5414 5412 5409 5407 5405 5402 5399 5396 5393 5390 5387 5384 5381 5378 5375 5373 5370 5368 5366 5365 5363 5362 5361 5360 5358
5600 5599 5598 5597 5596 5594 5593 5592 5590 5589 5588 5586 5585 5583 5582 5581 5579 5578 5576 5574 5572 5569 5567 5564 5562 5559 5556 5554 5552 5549 5546 5542 5538 5534 5531 5527 5524 5521 5518 5514 5510 5507 5504 5499 5494 5489 5484 5479 5473 5468 5462 5457 5453 5448 5444 5438 5433 5428 5423 5420 5417 5414 5411 5408 5406 5404 5401 5398 5395 5392 5389 5387 5384 5381 5378 5375 5372 5370 5368 5366 5365 5363 5362 5361 5360 5359
5597 5596 5595 5594 5593 5592 5590 5589 5588 5587 5585 5584 5583 5581 5580 5578 5577 5575 5573 5571 5569 5566 5564 5561 5559 5556 5553 5551 5548 5545 5542 5539 5535 5531 5528 5524 5521 5518 5515 5512 5508 5504 5501 5497 5493 5488 5483 5477 5472 5466 5461 5455 5450 5445 5441 5437 5432 5427 5422 5418 5415 5413 5411 5408 5405 5403 5400 5398 5394 5392 5389 5386 5383 5380 5377 5374 5372 5370 5368 5366 5365 5363 5363 5361 5360 5359
5594 5593 5593 5591 5590 5589 5588 5587 5585 5584 5583 5582 5580 5579 5578 5576 5574 5572 5570 5568 5566 5563 5561 5558 5556 5553 5551 5548 5546 5543 5539 5536 5532 5528 5525 5522 5518 5515 5512 5509 5506 5502 5498 5494 5490 5485 5481 5475 5470 5465 5461 5455 5450 5444 5439 5434 5430 5425 5421 5417 5413 5411 5409 5407 5404 5402 5399 5397 5394 5391 5388 5385 5383 5379 5377 5374 5372 5370 5368 5367 5365 5364 5363 5362 5361 5360
5592 5591 5590 5588 5588 5587 5585 5584 5583 5582 5581 5579 5578 5577 5575 5573 5572 5570 5568 5565 5563 5561 5558 5556 5553 5551 5548 5546 5543 5540 5537 5533 5529 5526 5523 5519 5516 5513 5510 5507 5503 5500 5495 5491 5487 5483 5478 5473 5468 5463 5458 5454 5449 5444 5438 5433 5428 5424 5420 5416 5413 5410 5408 5405 5403 5401 5398 5396 5393 5391 5388 5385 5382 5379 5377 5374 5372 5370 5368 5367 5366 5364 5363 5362 5361 5360
5589 5588 5587 5586 5585 5584 5583 5582 5581 5580 5578 5577 5576 5574 5573 5571 5569 5567 5565 5562 5560 5558 5556 5553 5551 5548 5545 5543 5540 5537 5534 5531 5527 5523 5520 5517 5514 5510 5507 5504 5501 5497 5493 5489 5484 5480 5476 5471 5467 5462 5457 5452 5447 5442 5437 5432 5427 5423 5419 5415 5412 5410 5407 5405 5403 5400 5398 5395 5393 5390 5388 5385 5382 5379 5377 5374 5372 5371 5369 5368 5366 5365 5364 5363 5362 5361
5587 5585 5585 5584 5583 5582 5581 5580 5579 5577 5576 5575 5573 5572 5570 5568 5567 5564 5562 5560 5557 5555 5553 5551 5548 5546 5543 5539 5537 5534 5531 5528 5525 5522 5518 5515 5512 5508 5505 5501 5498 5494 5491 5487 5482 5477 5473 5469 5465 5461 5456 5451 5446 5441 5436 5430 5425 5421 5417 5414 5411 5408 5405 5403 5401 5399 5397 5394 5392 5390 5387 5384 5382 5379 5377 5375 5373 5371 5370 5368 5367 5366 5365 5364 5363 5362
5584 5583 5583 5582 5581 5580 5579 5578 5576 5575 5574 5572 5571 5569 5568 5566 5564 5562 5559 5557 5555 5553 5550 5548 5546 5543 5540 5537 5534 5531 5528 5525 5523 5520 5516 5513 5509 5506 5502 5499 5495 5491 5488 5484 5480 5476 5471 5467 5463 5459 5455 5450 5445 5439 5434 5429 5424 5420 5416 5413 5410 5407 5404 5402 5400 5398 5396 5394 5392 5389 5387 5384 5382 5379 5377 5375 5373 5372 5370 5369 5368 5367 5366 5365 5363 5363
5582 5581 5581 5580 5579 5578 5577 5576 5574 5573 5572 5570 5568 5567 5565 5563 5561 5559 5557 5555 5553 5550 5548 5546 5543 5540 5537 5534 5532 5529 5525 5523 5520 5517 5514 5511 5507 5504 5500 5496 5492 5488 5485 5481 5478 5475 5470 5466 5461 5457 5453 5448 5443 5438 5433 5427 5423 5418 5415 5412 5409 5407 5404 5402 5400 5397 5395 5393 5391 5389 5386 5384 5382 5380 5378 5376 5374 5373 5371 5370 5369 5368 5367 5366 5364 5363
5580 5579 5579 5578 5577 5576 5575 5573 5572 5571 5569 5568 5566 5564 5562 5560 5558 5556 5554 5553 5550 5548 5546 5544 5541 5538 5535 5532 5529 5527 5524 5521 5518 5515 5512 5509 5505 5502 5498 5494 5490 5486 5483 5479 5476 5473 5469 5466 5461 5456 5451 5446 5441 5437 5432 5427 5422 5417 5413 5410 5408 5406 5403 5401 5399 5397 5395 5393 5391 5388 5386 5384 5382 5380 5378 5377 5375 5374 5373 5371 5370 5369 5368 5367 5366 5365
5578 5578 5577 5576 5575 5574 5573 5571 5570 5568 5567 5565 5563 5562 5559 5558 5556 5554 5552 5550 5548 5546 5544 5541 5539 5536 5533 5530 5528 5525 5522 5519 5516 5513 5511 5507 5504 5500 5496 5492 5488 5484 5481 5478 5474 5471 5468 5464 5460 5456 5450 5445 5439 5434 5429 5425 5421 5416 5413 5409 5407 5405 5403 5400 5398 5396 5394 5392 5390 5388 5386 5384 5382 5381 5379 5378 5377 5375 5373 5372 5371 5370 5369 5368 5367 5366
5577 5576 5575 5573 5573 5571 5570 5569 5568 5566 5565 5563 5561 5559 5557 5555 5553 5551 5550 5548 5546 5544 5542 5539 5537 5534 5531 5528 5526 5523 5520 5518 5515 5512 5509 5506 5502 5498 5495 5491 5487 5483 5479 5476 5473 5470 5466 5462 5458 5454 5449 5443 5438 5432 5428 5423 5419 5415 5412 5409 5406 5404 5402 5400 5398 5396 5394 5392 5390 5388 5386 5384 5383 5382 5380 5379 5378 5376 5375 5373 5372 5371 5370 5369 5368 5367
5574 5573 5573 5572 5570 5569 5568 5567 5565 5564 5562 5560 5558 5557 5555 5553 5551 5549 5548 5545 5543 5542 5539 5537 5534 5532 5529 5527 5524 5521 5519 5516 5513 5510 5507 5504 5501 5497 5493 5489 5485 5481 5478 5474 5471 5468 5464 5461 5457 5453 5448 5443 5437 5431 5426 5422 5418 5415 5411 5408 5406 5403 5401 5399 5397 5395 5393 5392 5390 5388 5386 5384 5383 5382 5381 5380 5378 5377 5376 5375 5373 5372 5371 5370 5369 5368
5572 5571 5570 5569 5568 5567 5566 5564 5563 5562 5560 5558 5556 5554 5552 5551 5549 5548 5545 5543 5541 5539 5537 5534 5532 5529 5527 5524 5522 5519 5517 5514 5511 5508 5505 5502 5499 5495 5491 5487 5483 5480 5476 5472 5469 5466 5462 5458 5454 5450 5447 5442 5436 5430 5425 5421 5418 5414 5411 5408 5406 5403 5401 5399 5397 5395 5393 5391 5389 5388 5386 5385 5383 5383 5382 5380 5379 5378 5377 5376 5375 5373 5373 5372 5371 5370
5570 5569 5568 5567 5566 5564 5563 5562 5561 5559 5558 5556 5554 5552 5550 5548 5547 5545 5543 5541 5539 5537 5534 5532 5530 5527 5525 5522 5520 5517 5515 5512 5509 5506 5503 5500 5497 5493 5489 5486 5482 5479 5475 5471 5467 5463 5459 5455 5451 5447 5443 5440 5436 5431 5425 5421 5417 5413 5410 5408 5405 5403 5401 5399 5397 5395 5393 5391 5390 5388 5386 5385 5384 5383 5382 5381 5380 5379 5378 5377 5376 5375 5374 5373 5372 5372
5567 5566 5565 5564 5563 5563 5561 5560 5558 5557 5555 5553 5552 5550 5548 5547 5545 5543 5541 5539 5537 5535 5532 5530 5528 5525 5523 5520 5518 5515 5513 5510 5508 5504 5501 5498 5495 5491 5488 5484 5481 5478 5474 5470 5466 5462 5458 5454 5449 5445 5440 5437 5433 5430 5426 5421 5417 5413 5410 5407 5405 5403 5401 5399 5397 5395 5393 5392 5390 5388 5387 5386 5385 5384 5383 5382 5381 5380 5379 5378 5378 5377 5375 5374 5374 5373